This is the latest recevied weather packets stored in our database for station/object KG2V. If no packets are shown the sender has not sent any weather packets the latest 10 day(s).
| Time | Temp. | Humidity | Pressure | Rain* | Wind** | Luminosity | Snow |
|---|---|---|---|---|---|---|---|
| 1778329762 | 10° C | 85% | 1003.9 hPa | 0 mm | - | 114 W/m² | - |
| 1778329459 | 10° C | 85% | 1003.8 hPa | 0 mm | - | 108 W/m² | - |
| 1778329155 | 9.44° C | 85% | 1004 hPa | 0 mm | - | 111 W/m² | - |
| 1778328852 | 8.89° C | 86% | 1003.9 hPa | 0 mm | - | 110 W/m² | - |
| 1778328551 | 8.33° C | 86% | 1004.1 hPa | 0 mm | - | 99 W/m² | - |
| 1778328249 | 8.33° C | 87% | 1004.1 hPa | 0 mm | - | 87 W/m² | - |
| 1778327946 | 7.78° C | 88% | 1004 hPa | 0 mm | - | 86 W/m² | - |
| 1778327643 | 7.22° C | 89% | 1004 hPa | 0 mm | - | 81 W/m² | - |
| 1778327340 | 6.67° C | 89% | 1004 hPa | 0 mm | - | 81 W/m² | - |
| 1778327039 | 6.67° C | 91% | 1004.1 hPa | 0 mm | - | 76 W/m² | - |
| 1778326738 | 6.11° C | 92% | 1004.2 hPa | 0 mm | - | 67 W/m² | - |
| 1778326435 | 6.11° C | 92% | 1004 hPa | 0 mm | - | 55 W/m² | - |
| 1778326131 | 5.56° C | 93% | 1004.2 hPa | 0 mm | - | 58 W/m² | - |
| 1778325828 | 5.56° C | 93% | 1004.1 hPa | 0 mm | - | 54 W/m² | - |
| 1778325526 | 5° C | 93% | 1004.2 hPa | 0 mm | - | 52 W/m² | - |
| 1778325222 | 5° C | 93% | 1004.2 hPa | 0 mm | - | 45 W/m² | - |
| 1778324920 | 5° C | 94% | 1004.1 hPa | 0 mm | - | 45 W/m² | - |
| 1778324616 | 4.44° C | 94% | 1004 hPa | 0 mm | - | 43 W/m² | - |
| 1778324315 | 4.44° C | 94% | 1004.1 hPa | 0 mm | - | 35 W/m² | - |
| 1778324012 | 3.89° C | 94% | 1004 hPa | 0 mm | - | 34 W/m² | - |
| 1778323709 | 3.89° C | 95% | 1004 hPa | 0 mm | - | 31 W/m² | - |
| 1778323405 | 3.89° C | 95% | 1004.1 hPa | 0 mm | - | 27 W/m² | - |
| 1778323103 | 3.33° C | 95% | 1004.1 hPa | 0 mm | - | 23 W/m² | - |
| 1778322800 | 3.33° C | 95% | 1003.9 hPa | 0 mm | - | 18 W/m² | - |
| 1778322499 | 3.33° C | 95% | 1003.9 hPa | 0 mm | - | 16 W/m² | - |
* Rain latest hour (hover to see other rain measurements)
** Current wind speed in m/s (hover to see current wind gust speed)